COSMOS 2251 DEB, 33992

Orbit data source: Space-Track

COSMOS 2251 DEB, 33992 is space debris in LEO originally from a launch on Wed, 16 Jun 1993 UTC launched from the Plesetsk Missile And Space Complex (PKMTR). The debris from Iridium 33, an American commercial communications satellite, has been tracked extensively since its accidental collision with the defunct Russian satellite Cosmos 2251 in 2009. This event, occurring at high speed in low Earth orbit (LEO), generated thousands of pieces of space debris, significantly increasing the risk of further collisions. The Iridium 33 debris cloud has impacted space traffic management and orbital debris mitigation strategies, making it a subject of ongoing study in space situational awareness.

Loading next visibility...
Identifier
33992, 1993-036GB
Orbit
LEO
Country
Flag of CISCIS
Related business
Manufacturer
Unknown
Mission
Spacecraft
Bus & Motor
Unknown
Mass
Unknown
Launch date (UTC)
1993-06-16 (33 years ago)
Launch vehicle
Unknown
Launch site
Plesetsk Missile And Space Complex (PKMTR)
Object type
Payload
Rocket body
Debris
Shape & HBR
Unknown shape, 0.2 m
Radar Cross Section
Medium (>0.1 m² and <1 m²)

Expand to show TLE details & history
Last TLE update: 6 hours ago

TLE from 6 hours ago
0 COSMOS 2251 DEB
1 33992U 93036GB  26207.58882758  .00002658  00000-0  45982-3 0  9997
2 33992  74.0221 261.4226 0054452 321.8081 158.5191 14.67930234924374
Epoch: 2026-07-26T14:07Z
TLE epoch observation values (Epoch: 2026-07-26T14:07:54.702Z)
Latitude
55.99076°
Longitude
-99.80564°
Altitude
712.401 km
Speed
7.486 km/s
True Right ascension
03h 45m 49s
True Declination
55° 49' 48"
Sunlit
Object was in daylight at epoch
Visualization orbit readout
Latitude
Unknown
Longitude
Unknown
Altitude
Unknown
Speed
Unknown
Apparent Right ascension
Unknown
Apparent Declination
Unknown
Sunlit
N/A
Visualization observer readout
Local Sidereal Time
09:55:06
Azimuth
Unknown
Elevation
Unknown
Doppler factor
Unknown
Orbital elements
Apogee altitude
703.626 km
Perigee altitude
626.92 km
Semi-major axis
7,043.41 km
Eccentricity
0.00545
Inclination
74.0221°
RAAN
261.4226°
Arg. of periapsis
321.8081°
True anomaly
158.74615°
Mean anomaly
158.5191°
Eccentric anomaly
158.63277°
Mean motion
3.67171 °/min
Orbital period
98.05 mins
BSTAR
0.00045982

Documentation

Showing up to 5 results
|